{"data":{"norad_id":65749,"intl_designator":"2025-216R","name":"STARLINK-35288","alt_names":[],"object_type":"PAYLOAD","status":"ACTIVE","operator":null,"country":"US","launch_date":"2025-09-25","launch_site_code":"AFETR","launch_vehicle":null,"mission":null,"orbit_class":"UNKNOWN","rcs_meters":null,"size_class":null,"mass_kg":null,"dimensions":null,"purposes":["comms"],"wikipedia_slug":null,"has_3d_model":false,"image_url":null,"decayed_at":null,"tle_current":{"epoch":"2026-09-20T05:50:38.344704Z","epoch_age_seconds":130714,"freshness":"FRESH","line1":"1 65749U 25216R   26263.24349936  .00013028  00000+0  39616-3 0  9997","line2":"2 65749  53.1556 146.8714 0001461  12.8909 347.2131 15.34391314 56332","mean_motion":15.34391314,"eccentricity":0.0001461,"inclination_deg":53.1556,"raan_deg":146.8714,"arg_perigee_deg":12.8909,"mean_anomaly_deg":347.2131,"bstar":0.00039616,"rev_number":5633,"period_min":93.848289341919,"perigee_km":461.72960642046,"apogee_km":463.7285074823,"semimajor_km":6840.8660569514,"source":"CELESTRAK","updated_at":"2026-09-21T09:00:35.710123Z"}}}